Content
SEND FEEDBACK

Daily
Averages
Monthly
Summary
United States of America

EARTH CITY, MISSOURI


Home > North America > United States > Missouri
Elevation: 476 feet     Latitude: 38 46N     Longitude: 090 30W

WEATHER
 
SELECT A DAY
Number of Records: 207,389;   Date Range: 1/1/95 - 11/22/14
 
SHARE

PRINT THIS DATA

[ ← Previous Day ]
WEATHER ALMANAC - APRIL 3, 2013
[ Next Day → ]
[ °C ]   °F
Weather ElementAverageHighLow
Temperature44 °F52 °F (3:51 pm)33.1 °F (6:51 am)
Dewpoint20.3 °F23 °F (7:51 pm)17.1 °F (12:51 pm)
Humidity40.2 %59 % (6:51 am)28 % (12:51 pm)
Barometer30.34 in30.42 in (7:51 am)30.28 in (11:51 pm)
Wind Speed8.1 mph15 mph (2:51 pm)
Wind Gust19.6 mph (2:51 pm)
Weather ElementAverage
Visibility10 mi
Wind DirectionENE (56.5 °)

Weather ElementTotal
Precipitation---
Heating Degree Days22.5 (Base 65)
Averaged from 23 records on April 3, 2013
WEATHER CONDITIONS BREAKOUT
WIND DIRECTION BREAKOUT
WEATHER BY HOUR - APRIL 3, 2013
[ °C ]   °F
Local TimeTemperatureDewpointHumidityBarometerVisibilityWind DirectionWind SpeedGust SpeedPrecipitationEventsConditions
1:51 AM39.9 °F18.0 °F41 %30.34 in10.0 miNNE (30°)6.9 mphScattered Clouds
2:51 AM37.9 °F19.0 °F47 %30.33 in10.0 miNNE (30°)9.2 mphScattered Clouds
3:51 AM36.0 °F19.9 °F52 %30.35 in10.0 miNE (40°)6.9 mphScattered Clouds
4:51 AM35.1 °F19.9 °F54 %30.34 in10.0 miNNE (30°)4.6 mphPartly Cloudy
5:51 AM34.0 °F19.9 °F56 %30.35 in10.0 miNNE (20°)8.1 mphPartly Cloudy
6:51 AM33.1 °F19.9 °F59 %30.39 in10.0 miNNE (30°)4.6 mphScattered Clouds
7:51 AM35.1 °F21.0 °F57 %30.42 in10.0 miNE (40°)3.5 mphMostly Cloudy
8:51 AM39.0 °F21.0 °F49 %30.42 in10.0 miNNE (30°)4.6 mphPartly Cloudy
9:51 AM43.0 °F19.0 °F38 %30.41 in10.0 miENE (60°)9.2 mphPartly Cloudy
10:51 AM45.0 °F18.0 °F34 %30.41 in10.0 miCalmPartly Cloudy
11:51 AM48.0 °F19.0 °F32 %30.40 in10.0 miEast (100°)10.4 mphPartly Cloudy
12:51 PM48.9 °F17.1 °F28 %30.37 in10.0 miENE (60°)9.2 mphScattered Clouds
1:51 PM50.0 °F19.0 °F29 %30.35 in10.0 miEast (90°)11.5 mphPartly Cloudy
2:51 PM51.1 °F19.0 °F28 %30.33 in10.0 miENE (70°)15.0 mph19.6 mphScattered Clouds
3:51 PM52.0 °F19.9 °F28 %30.33 in10.0 miENE (60°)10.4 mphMostly Cloudy
4:51 PM52.0 °F21.0 °F30 %30.31 in10.0 miNE (50°)13.8 mphMostly Cloudy
5:51 PM51.1 °F21.9 °F32 %30.30 in10.0 miENE (70°)8.1 mphMostly Cloudy
6:51 PM50.0 °F21.0 °F32 %30.30 in10.0 miEast (90°)10.4 mphOvercast
7:51 PM46.9 °F23.0 °F39 %30.30 in10.0 miEast (80°)8.1 mphOvercast
8:51 PM46.9 °F23.0 °F39 %30.29 in10.0 miENE (70°)8.1 mphOvercast
9:51 PM46.9 °F23.0 °F39 %30.30 in10.0 miEast (90°)9.2 mphOvercast
10:51 PM46.0 °F21.9 °F39 %30.29 in10.0 miEast (80°)8.1 mphMostly Cloudy
11:51 PM44.1 °F23.0 °F43 %30.28 in10.0 miEast (80°)6.9 mphMostly Cloudy
Hourly data recorded from KSTL, located miles away from Earth City, Missouri







STORIES FROM OUR PARTNERS